User: anonymous   Login
Location: Unspecified
(0.0000°N, 0.0000°E)
Time: 14:11:52
(UTC+00:00)
Language:

A-11 Canister half - Orbit

View from above orbital plane
View from above orbital plane
View from above satellite
View from above satellite

Ground track
Ground track

The orbit data is extracted from the following two-line orbital elements,

1 00051U 60009C   15026.88883432 -.00000086  00000-0  00000+0 0  7137
2 00051 047.2132 317.5958 0105152 069.4034 338.0018 12.18248138424095
Epoch (UTC): 26 January 2015 21:19:55
Eccentricity: 0.0105152
inclination: 47.2132°
perigee height: 1516 km
apogee height: 1684 km
right ascension of ascending node: 317.5958°
argument of perigee: 69.4034°
revolutions per day: 12.18248138
mean anomaly at epoch: 338.0018°
orbit number at epoch: 42409

The dashed part of the orbit path shows where the satellite is in the earth's shadow,  

DLR